Terminal Aerodrome Forecast
Issued by NWS St Louis, MO

Home | Current Version | Previous Version | Text Only | Print | Product List | Glossary On
Versions: 1 2 3 4 5 6 7 8 9 10 11 12 13 14 15 16 17 18 19 20 21 22 23 24
843
FTUS43 KLSX 080721 AAA
TAFSTL
TAF AMD
KSTL 080721Z 0807/0912 29015G25KT P6SM -RASN BKN040
     FM081000 29018G28KT P6SM -SHSN OVC025
     FM081800 31019G28KT P6SM OVC035
     FM082300 31019G27KT P6SM OVC030=

USA.gov is the U.S. government's official web portal to all federal, state and local government web resources and services.